Regional Weather Roundup
Issued by NWS

Home | Current Version | Previous Version | Graphics & Text | Print | Product List | Glossary On
Versions: 1 2 3 4 5 6 7 8 9 10 11 12 13 14 15 16 17 18 19 20 21 22 23 24 25 26 27 28 29 30 31 32 33 34 35 36 37 38 39 40 41 42 43 44 45 46 47 48 49 50
000
ASUS43 KFSD 281502
RWRSD

WEATHER ROUNDUP FOR SOUTH DAKOTA
NATIONAL WEATHER SERVICE SIOUX FALLS SD
1000 AM CDT SUN MAY 28 2017

NOTE: "FAIR" INDICATES FEW OR NO CLOUDS BELOW 12,000 FEET WITH NO
SIGNIFICANT WEATHER AND/OR OBSTRUCTIONS TO VISIBILITY.


SDZ001>005-009-010-012>017-281600-
NORTHWEST AND NORTH CENTRAL SOUTH DAKOTA

CITY           SKY/WX    TMP DP  RH WIND       PRES   REMARKS
BUFFALO          N/A     66  33  29 NW14      30.01S
FAITH            N/A     65  38  36 N20       30.02R
MOBRIDGE       SUNNY     65  44  46 NW15      29.94R
$$

SDZ012>016-024>037-041>051-057-063-072>074-281600-
SOUTHWEST AND SOUTH CENTRAL SOUTH DAKOTA

CITY           SKY/WX    TMP DP  RH WIND       PRES   REMARKS
RAPID CTY ARPT CLOUDY    65  37  35 NW21      30.10R
PIERRE         SUNNY     66  44  45 NW14      29.96R
CUSTER         CLOUDY    57  35  43 N12G17    30.17R
ELLSWORTH AFB  MOSUNNY   64  37  36 NW20      30.09S
PHILIP         MOSUNNY   67  44  43 N14       30.03R
PINE RIDGE     PTSUNNY   63  47  55 NW8       30.11R
SPEARFISH      FAIR      59  41  51 W9        30.15S
WINNER         FAIR      66  47  50 NW17      29.99R
$$

SDZ004>011-016>023-039-040-281600-
NORTHEAST SOUTH DAKOTA

CITY           SKY/WX    TMP DP  RH WIND       PRES   REMARKS
ABERDEEN       SUNNY     66  42  41 NW21G29   29.88R
WATERTOWN      PTSUNNY   63  43  48 NW13      29.85R
BROOKINGS      SUNNY     62  45  53 NW13      29.87R
SISSETON         N/A     63  47  55 NW18      29.80R
$$

SDZ017-020-022-023-036>040-048>070-281600-
SOUTHEAST SOUTH DAKOTA

CITY           SKY/WX    TMP DP  RH WIND       PRES   REMARKS
SIOUX FALLS    MOSUNNY   65  48  54 W7        29.87S
HURON          SUNNY     64  49  57 N13       29.90R
CHAMBERLAIN    SUNNY     70  42  36 NW21G30   29.95R
MITCHELL       SUNNY     67  47  48 NW15      29.90S
YANKTON        SUNNY     65  51  60 NW15G24   29.90S
$$

ABBREVIATIONS USED IN REMARKS
   TC - TEMPERATURE IN CELSIUS
  WCI - WIND CHILL INDEX
   HX - HEAT INDEX
  VSB - VISIBILITY





USA.gov is the U.S. government's official web portal to all federal, state and local government web resources and services.